Preview of NWS' New Version of Forecast
This preview is not operational and should not be used for support decisions.

Regional Weather Roundup (RWR)

Issued by Gray - Portland, ME (GYX)

                            
000
ASUS41 KGYX 181510
RWRGYX
WEATHER ROUNDUP FOR MAINE AND NEW HAMPSHIRE
NATIONAL WEATHER SERVICE GRAY ME
1100 AM EDT THU APR 18 2019

MEZ002-005-006-010-012-015-018-020-021-024-026-027-029-181600-
MAINE
  
CITY           SKY/WX    TMP DP  RH WIND       PRES   REMARKS
PORTLAND       CLOUDY    45  35  68 S8        30.26F                  
SANFORD        CLOUDY    44  34  67 SE3       30.24F                  
BAR HARBOR     FAIR      49  35  58 S12       30.26F                  
WISCASSET      CLOUDY    49  30  48 VRB7      30.27F                  
ROCKLAND       PTSUNNY   47  37  68 S8        30.26F                  
FRYEBURG       CLOUDY    44  26  49 CALM      30.22F                  
LEWISTONAUBURN FAIR      48  28  46 S12       30.23F                  
AUGUSTA        CLOUDY    49  26  41 S9G18     30.23F                  
WATERVILLE     FAIR      49  28  44 S9        30.20F                  
BANGOR         PTSUNNY   53  29  39 S13       30.23F                  
GREENVILLE       N/A     42  21  43 SE12G18   30.13F                  
MILLINOCKET    FAIR      50  23  34 VRB5      30.21F                  
HOULTON        FAIR      49  18  29 SE9       30.21F                  
PRESQUE ISLE   FAIR      44  24  45 SE10      30.21F                  
FRENCHVILLE    FAIR      42  22  44 SE10      30.17F                  
CARIBOU        FAIR      44  23  43 SE9       30.20F                  
$$

NHZ002-005-008-009-011-012-014-181600-
NEW HAMPSHIRE
  
CITY           SKY/WX    TMP DP  RH WIND       PRES   REMARKS
PORTSMOUTH     CLOUDY    45  35  69 SE10      30.22F                  
ROCHESTER      CLOUDY    43  35  73 CALM      30.23F                  
NASHUA         LGT RAIN  46  34  62 VRB6      30.22F                  
MANCHESTER     LGT RAIN  46  34  62 SE8       30.20F                  
CONCORD        CLOUDY    44  30  57 VRB7      30.21F                  
LACONIA        CLOUDY    40  33  76 NW5       30.21                   
PLYMOUTH       CLOUDY    35  31  86 CALM      30.21S                  
BERLIN         CLOUDY    44  29  55 S20G31    30.12F                  
WHITEFIELD     CLOUDY    44  32  62 SE15G23   30.12F                  
JAFFREY        CLOUDY    45  27  49 S8        30.17F                  
KEENE          CLOUDY    43  37  79 CALM      30.19R                  
LEBANON        CLOUDY    43  36  76 CALM      30.15F                  
MT WASHINGTON  SNOW      21  21 100 S44G49      N/A  VSB 0   WCI   0  
$$

VTZ005-007-008-181600-
VERMONT
  
CITY           SKY/WX    TMP DP  RH WIND       PRES   REMARKS
ST JOHNSBURY     N/A     38  34  85 MISG      30.10F                  
MONTPELIER     CLOUDY    39  31  72 S13       30.12F                  
BURLINGTON     PTSUNNY   51  30  44 S17G29    29.97F                  
$$

MAZ007-012-024-CTZ003-RIZ002-NYZ038-NYZ072-181600-
SOUTHERN NEW ENGLAND AND NY
  
CITY           SKY/WX    TMP DP  RH WIND       PRES   REMARKS
BOSTON         LGT RAIN  49  32  52 S13       30.24F                  
WORCESTER      CLOUDY    45  25  45 S15       30.19F                  
NANTUCKET      CLOUDY    47  38  71 SE18      30.28F                  
PROVIDENCE     CLOUDY    48  40  73 SE13      30.23F                  
HARTFORD       CLOUDY    52  38  58 S14       30.17F                  
ALBANY         CLOUDY    54  25  32 S18G25    30.07F                  
NEW YORK CITY  CLOUDY    56  43  61 E13G20    30.09F                  
$$

ANZ081-ANZ082-ANZ150-NHZ014-MEZ023>029-181600-
COASTAL MARINE OBSERVATIONS
  
STATION/POSITION TIME  TEMP    WIND        PRES    WAVE
                       AIR SEA DIR/SP/G            HT/PER
                 (UTC) (F)     (DEG/KT/KT) (MB)    (FT/S)
ISLE OF SHOALS   1400   42     150/ 13/ 14 1024.4F
$$

.............KEY..............
   WCI - WIND CHILL
   TC  - TEMPERATURE IN CELSIUS
   VSB - VISIBILITY IN MILES
   HX  - HEAT INDEX
   FAIR- INDICATES FEW OR NO CLOUDS BELOW 12,000 FT, WITH NO 
         SIGNIFICANT WEATHER AND/OR OBSTRUCTIONS TO VISIBILITY.